Location: Aldenham
(51.6667°N, 0.3500°W)
Time: 11:58:23
(UTC+00:00)

A-11 Canister half - Pass Details

Date: 20 February 2026
Orbit: 1513 x 1686 km, 47.2° (Epoch: 17 March)

Event Time Altitude Azimuth Distance (km) Brightness Sun altitude
Rises 02:14:56 0° 285° (WNW) 4,896 - -42.6°
Reaches altitude 10° 02:18:21 10° 279° (W) 3,886 - -42.2°
Maximum altitude 02:27:17 41° 214° (SW) 2,193 - -41.3°
Drops below altitude 10° 02:35:56 10° 149° (SSE) 3,749 - -40.3°
Exits shadow 02:37:32 - 145° (SE) 4,216 11.2 -40.1°
Sets 02:39:10 0° 142° (SE) 4,709 11.5 -39.9°
